EW6088 Weather Reports


Display with metric or nautical units.
time (UTC)temp
F
wind
direction
speed
MPH
gust
MPH
rain 1hr
in
rain 24hr
in
rain mn
in
humidity
%
barometer
mb
20260504034503 40 18 0.0 1.0 0.00 0.00 0.00 69 1019.8
20260504033603 40 40 0.0 1.0 0.00 0.00 0.00 69 1019.8
20260504032703 40 62 0.0 1.0 0.00 0.00 0.00 70 1019.6
20260504031803 41 54 0.0 1.0 0.00 0.00 0.00 69 1019.6
20260504030903 41 35 0.0 2.0 0.00 0.00 0.00 68 1019.5
20260504030003 41 36 0.0 1.0 0.00 0.00 0.00 67 1019.8
20260504025424 41 34 0.0 2.0 0.00 0.00 0.00 69 1019.8
20260504024503 41 26 2.0 4.0 0.00 0.00 0.00 67 1020.2
20260504023603 42 25 1.0 2.0 0.00 0.00 0.00 66 1020.0
20260504022724 42 25 0.0 1.0 0.00 0.00 0.00 66 1020.2
20260504021803 43 21 0.0 1.0 0.00 0.00 0.00 64 1020.0
20260504020924 43 34 0.0 2.0 0.00 0.00 0.00 64 1020.2
20260504020024 44 32 0.0 2.0 0.00 0.00 0.00 60 1020.0
20260504015403 44 56 0.0 1.0 0.00 0.00 0.00 60 1019.8
20260504014503 45 41 0.0 1.0 0.00 0.00 0.00 59 1019.5
20260504013603 46 15 0.0 2.0 0.00 0.00 0.00 57 1019.5
20260504012703 46 8 0.0 2.0 0.00 0.00 0.00 57 1019.5
20260504011803 47 33 0.0 6.0 0.00 0.00 0.00 55 1019.2
20260504010903 47 22 0.0 2.0 0.00 0.00 0.00 56 1019.4
20260504010003 48 25 0.0 2.0 0.00 0.00 0.00 54 1019.3
20260504005403 49 20 0.0 1.0 0.00 0.00 0.00 52 1019.3
20260504004524 50 0 0.0 0.0 0.00 0.00 0.00 48 1019.3
20260504003603 51 19 0.0 1.0 0.00 0.00 0.00 47 1019.0
20260504002703 52 19 0.0 1.0 0.00 0.00 0.00 46 1019.2
20260504001803 53 30 0.0 2.0 0.00 0.00 0.00 46 1019.2
20260504000903 53 26 1.0 3.0 0.00 0.00 0.00 43 1019.1
20260504000003 54 29 1.0 4.0 0.00 0.00 0.00 40 1019.1
20260503235403 55 30 0.0 2.0 0.00 0.00 0.00 40 1019.0
20260503234524 56 30 1.0 4.0 0.00 0.00 0.00 39 1019.1
20260503233603 57 14 1.0 3.0 0.00 0.00 0.00 37 1018.8
20260503232703 59 12 1.0 3.0 0.00 0.00 0.00 35 1018.8
20260503231803 60 23 1.0 4.0 0.00 0.00 0.00 34 1018.8
20260503230903 60 22 2.0 6.0 0.00 0.00 0.00 34 1018.9
20260503230003 61 29 1.0 7.0 0.00 0.00 0.00 34 1018.4
20260503225403 61 37 2.0 9.0 0.00 0.00 0.00 33 1018.7
20260503224524 63 353 1.0 6.0 0.00 0.00 0.00 32 1018.8
20260503223603 64 313 2.0 8.0 0.00 0.00 0.00 29 1018.4
20260503222703 65 305 2.0 6.0 0.00 0.00 0.00 29 1018.8
20260503221803 66 324 1.0 3.0 0.00 0.00 0.00 27 1018.7
20260503220903 66 255 1.0 4.0 0.00 0.00 0.00 27 1018.7
20260503220003 67 179 2.0 4.0 0.00 0.00 0.00 29 1018.8
20260503215403 67 141 1.0 4.0 0.00 0.00 0.00 29 1018.8
20260503214503 67 53 1.0 3.0 0.00 0.00 0.00 28 1018.7
20260503213603 66 339 2.0 7.0 0.00 0.00 0.00 30 1018.8
20260503212703 65 4 3.0 8.0 0.00 0.00 0.00 27 1018.9
20260503211824 66 11 2.0 7.0 0.00 0.00 0.00 31 1018.9
20260503210903 66 353 1.0 4.0 0.00 0.00 0.00 30 1018.9
20260503210003 66 24 2.0 9.0 0.00 0.00 0.00 29 1019.3
20260503205403 65 32 2.0 9.0 0.00 0.00 0.00 30 1019.2
20260503204503 66 10 2.0 6.0 0.00 0.00 0.00 29 1019.2
20260503203603 66 76 2.0 6.0 0.00 0.00 0.00 30 1019.3
20260503202703 66 294 1.0 7.0 0.00 0.00 0.00 27 1019.1
20260503201803 66 40 2.0 8.0 0.00 0.00 0.00 29 1019.2
20260503200903 66 333 2.0 6.0 0.00 0.00 0.00 31 1019.4
20260503200003 65 304 2.0 9.0 0.00 0.00 0.00 26 1019.5
20260503195403 64 331 2.0 9.0 0.00 0.00 0.00 26 1019.4
20260503194503 63 3 2.0 10.0 0.00 0.00 0.00 26 1019.4
20260503193603 63 7 2.0 9.0 0.00 0.00 0.00 33 1019.8
20260503192703 62 19 3.0 9.0 0.00 0.00 0.00 30 1019.6
20260503191803 63 42 3.0 9.0 0.00 0.00 0.00 26 1019.9
20260503190924 62 42 3.0 10.0 0.00 0.00 0.00 30 1019.8
20260503190003 62 24 2.0 8.0 0.00 0.00 0.00 26 1019.9
20260503185403 61 182 3.0 11.0 0.00 0.00 0.00 26 1020.0
20260503184503 61 180 3.0 13.0 0.00 0.00 0.00 28 1020.2
20260503183603 60 1 2.0 9.0 0.00 0.00 0.00 27 1020.2
20260503182703 59 325 3.0 9.0 0.00 0.00 0.00 28 1020.5
20260503181803 59 30 3.0 8.0 0.00 0.00 0.00 24 1020.8
20260503180903 59 5 2.0 6.0 0.00 0.00 0.00 36 1020.6
20260503180003 58 341 2.0 4.0 0.00 0.00 0.00 31 1020.9
20260503175403 58 1 2.0 9.0 0.00 0.00 0.00 31 1020.6
20260503174524 58 165 2.0 8.0 0.00 0.00 0.00 31 1020.8
20260503173603 58 188 2.0 6.0 0.00 0.00 0.00 34 1020.8
20260503172703 57 249 2.0 4.0 0.00 0.00 0.00 31 1020.9
20260503171824 56 343 2.0 10.0 0.00 0.00 0.00 33 1021.0
20260503170903 56 8 2.0 9.0 0.00 0.00 0.00 35 1021.2
20260503150924 49 47 2.0 8.0 0.00 0.00 0.00 39 1021.4
20260503130903 38 57 2.0 7.0 0.00 0.00 0.00 64 1020.6
20260503080903 35 55 1.0 4.0 0.00 0.00 0.00 81 1017.9
20260503072703 36 56 1.0 7.0 0.00 0.00 0.00 79 1018.0
20260503071803 36 50 1.0 4.0 0.00 0.00 0.00 78 1017.7
20260503070924 36 48 1.0 6.0 0.00 0.00 0.00 77 1017.7
20260503054503 37 54 1.0 4.0 0.00 0.00 0.00 75 1018.1
20260503053603 37 62 0.0 3.0 0.00 0.00 0.00 75 1017.7
20260503052703 37 77 1.0 4.0 0.00 0.00 0.00 73 1017.8
20260503051824 38 71 1.0 6.0 0.00 0.00 0.00 73 1017.8
20260503050924 38 25 1.0 3.0 0.00 0.00 0.00 72 1017.5
20260503050024 38 45 1.0 4.0 0.00 0.00 0.00 73 1017.7
20260503045403 38 28 1.0 6.0 0.00 0.00 0.00 73 1017.5
20260503044503 38 62 1.0 3.0 0.00 0.00 0.00 73 1017.4
20260503043603 38 4 0.0 3.0 0.00 0.00 0.00 72 1017.7
20260503042703 38 41 1.0 2.0 0.00 0.00 0.00 72 1017.7
20260503041803 38 57 1.0 3.0 0.00 0.00 0.00 72 1017.7
20260503040903 38 47 1.0 4.0 0.00 0.00 0.00 71 1017.3
20260503040004 38 57 0.0 4.0 0.00 0.00 0.00 71 1017.5
20260503035403 38 63 0.0 4.0 0.00 0.00 0.00 71 1017.5